Time,TemperatureF,DewpointF,PressureIn,WindDirection,WindDirectionDegrees,WindSpeedMPH,WindSpeedGustMPH,Humidity,HourlyPrecipIn,Conditions,Clouds,dailyrainin,SoftwareType,DateUTC
2013-06-03 00:00:00,51.6,46.0,30.46,North,-999,0.0,0.7,81,0.00,,,0.00,pywws,2013-06-02 23:00:00,
2013-06-03 00:05:00,51.3,45.6,30.46,North,-999,0.0,1.6,81,0.00,,,0.00,pywws,2013-06-02 23:05:00,
2013-06-03 00:10:00,51.1,45.8,30.45,North,-999,0.0,0.7,82,0.00,,,0.00,pywws,2013-06-02 23:10:00,
2013-06-03 00:15:00,50.7,45.7,30.45,North,-999,0.0,1.6,83,0.00,,,0.00,pywws,2013-06-02 23:15:00,
2013-06-03 00:20:00,50.5,45.6,30.46,North,-999,0.0,0.7,83,0.00,,,0.00,pywws,2013-06-02 23:20:00,
2013-06-03 00:25:00,50.4,45.4,30.46,North,-999,0.0,0.7,83,0.00,,,0.00,pywws,2013-06-02 23:25:00,
2013-06-03 00:30:00,50.4,45.7,30.46,North,-999,0.0,0.7,84,0.00,,,0.00,pywws,2013-06-02 23:30:00,
2013-06-03 00:35:00,50.2,45.8,30.45,NW,315,0.7,1.6,85,0.00,,,0.00,pywws,2013-06-02 23:35:00,
2013-06-03 00:40:00,50.2,46.2,30.46,NW,315,0.7,2.2,86,0.00,,,0.00,pywws,2013-06-02 23:40:00,
2013-06-03 00:45:00,50.4,46.0,30.46,North,0,0.7,1.6,85,0.00,,,0.00,pywws,2013-06-02 23:45:00,
2013-06-03 00:50:00,50.4,46.0,30.46,North,-999,0.0,0.7,85,0.00,,,0.00,pywws,2013-06-02 23:50:00,
2013-06-03 01:00:00,50.2,45.8,30.46,North,-999,0.0,0.7,85,0.00,,,0.00,pywws,2013-06-03 00:00:00,
2013-06-03 01:05:00,50.0,45.7,30.46,North,-999,0.0,0.7,85,0.00,,,0.00,pywws,2013-06-03 00:05:00,
2013-06-03 01:10:00,50.0,45.7,30.47,North,-999,0.0,0.7,85,0.00,,,0.00,pywws,2013-06-03 00:10:00,
2013-06-03 01:15:00,50.0,45.7,30.46,North,-999,0.0,0.7,85,0.00,,,0.00,pywws,2013-06-03 00:15:00,
2013-06-03 01:20:00,50.0,45.7,30.46,North,-999,0.0,0.7,85,0.00,,,0.00,pywws,2013-06-03 00:20:00,
2013-06-03 01:25:00,50.0,45.7,30.47,North,0,0.7,2.2,85,0.00,,,0.00,pywws,2013-06-03 00:25:00,
2013-06-03 01:30:00,50.0,45.7,30.47,North,-999,0.0,0.7,85,0.00,,,0.00,pywws,2013-06-03 00:30:00,
2013-06-03 01:35:00,50.0,45.7,30.47,North,-999,0.0,0.7,85,0.00,,,0.00,pywws,2013-06-03 00:35:00,
2013-06-03 01:40:00,50.0,46.0,30.47,North,-999,0.0,0.7,86,0.00,,,0.00,pywws,2013-06-03 00:40:00,
2013-06-03 01:45:00,50.0,46.0,30.47,North,-999,0.0,0.7,86,0.00,,,0.00,pywws,2013-06-03 00:45:00,
2013-06-03 01:50:00,49.8,45.5,30.47,North,-999,0.0,0.7,85,0.00,,,0.00,pywws,2013-06-03 00:50:00,
2013-06-03 02:00:00,49.6,45.6,30.47,North,-999,0.0,0.0,86,0.00,,,0.00,pywws,2013-06-03 01:00:00,
2013-06-03 02:05:00,49.1,45.1,30.46,North,-999,0.0,0.0,86,0.00,,,0.00,pywws,2013-06-03 01:05:00,
2013-06-03 02:10:00,48.6,44.9,30.46,North,-999,0.0,1.6,87,0.00,,,0.00,pywws,2013-06-03 01:10:00,
2013-06-03 02:15:00,48.2,44.5,30.47,North,-999,0.0,0.0,87,0.00,,,0.00,pywws,2013-06-03 01:15:00,
2013-06-03 02:20:00,47.8,44.5,30.47,North,-999,0.0,0.7,88,0.00,,,0.00,pywws,2013-06-03 01:20:00,
2013-06-03 02:25:00,47.7,44.6,30.46,North,0,0.7,2.2,89,0.00,,,0.00,pywws,2013-06-03 01:25:00,
2013-06-03 02:30:00,47.7,44.6,30.47,North,-999,0.0,1.6,89,0.00,,,0.00,pywws,2013-06-03 01:30:00,
2013-06-03 02:35:00,47.7,44.6,30.47,North,-999,0.0,0.7,89,0.00,,,0.00,pywws,2013-06-03 01:35:00,
2013-06-03 02:40:00,47.5,44.7,30.47,North,-999,0.0,0.7,90,0.00,,,0.00,pywws,2013-06-03 01:40:00,
2013-06-03 02:45:00,47.3,44.5,30.47,North,-999,0.0,1.6,90,0.00,,,0.00,pywws,2013-06-03 01:45:00,
2013-06-03 02:50:00,47.1,44.3,30.47,North,-999,0.0,0.7,90,0.00,,,0.00,pywws,2013-06-03 01:50:00,
2013-06-03 03:00:00,47.1,44.6,30.47,North,-999,0.0,1.6,91,0.00,,,0.00,pywws,2013-06-03 02:00:00,
2013-06-03 03:05:00,46.9,44.5,30.47,North,-999,0.0,0.7,91,0.00,,,0.00,pywws,2013-06-03 02:05:00,
2013-06-03 03:10:00,46.8,44.3,30.47,North,-999,0.0,0.0,91,0.00,,,0.00,pywws,2013-06-03 02:10:00,
2013-06-03 03:15:00,46.4,44.2,30.47,North,-999,0.0,0.7,92,0.00,,,0.00,pywws,2013-06-03 02:15:00,
2013-06-03 03:20:00,46.2,44.0,30.47,North,-999,0.0,0.7,92,0.00,,,0.00,pywws,2013-06-03 02:20:00,
2013-06-03 03:25:00,45.9,43.7,30.47,North,-999,0.0,0.0,92,0.00,,,0.00,pywws,2013-06-03 02:25:00,
2013-06-03 03:30:00,45.5,43.3,30.47,North,-999,0.0,0.0,92,0.00,,,0.00,pywws,2013-06-03 02:30:00,
2013-06-03 03:35:00,45.1,43.0,30.47,North,-999,0.0,0.0,92,0.00,,,0.00,pywws,2013-06-03 02:35:00,
2013-06-03 03:40:00,45.0,42.8,30.47,North,-999,0.0,0.0,92,0.00,,,0.00,pywws,2013-06-03 02:40:00,
2013-06-03 03:45:00,44.6,42.4,30.47,North,-999,0.0,0.0,92,0.00,,,0.00,pywws,2013-06-03 02:45:00,
2013-06-03 03:50:00,44.4,42.5,30.47,North,-999,0.0,0.0,93,0.00,,,0.00,pywws,2013-06-03 02:50:00,
2013-06-03 04:00:00,44.4,42.8,30.47,North,-999,0.0,0.0,94,0.00,,,0.00,pywws,2013-06-03 03:00:00,
2013-06-03 04:05:00,44.2,42.9,30.47,North,-999,0.0,0.0,95,0.00,,,0.00,pywws,2013-06-03 03:05:00,
2013-06-03 04:10:00,44.2,42.9,30.47,North,-999,0.0,1.6,95,0.00,,,0.00,pywws,2013-06-03 03:10:00,
2013-06-03 04:15:00,44.2,42.9,30.47,North,-999,0.0,0.0,95,0.00,,,0.00,pywws,2013-06-03 03:15:00,
2013-06-03 04:20:00,44.1,42.7,30.47,North,-999,0.0,0.0,95,0.00,,,0.00,pywws,2013-06-03 03:20:00,
2013-06-03 04:25:00,43.9,42.8,30.47,North,-999,0.0,0.7,96,0.00,,,0.00,pywws,2013-06-03 03:25:00,
2013-06-03 04:30:00,43.9,42.8,30.47,North,-999,0.0,0.0,96,0.00,,,0.00,pywws,2013-06-03 03:30:00,
2013-06-03 04:35:00,43.9,42.8,30.47,North,-999,0.0,0.7,96,0.00,,,0.00,pywws,2013-06-03 03:35:00,
2013-06-03 04:40:00,43.9,42.8,30.47,North,-999,0.0,0.7,96,0.00,,,0.00,pywws,2013-06-03 03:40:00,
2013-06-03 04:45:00,43.7,42.9,30.47,North,-999,0.0,0.0,97,0.00,,,0.00,pywws,2013-06-03 03:45:00,
2013-06-03 04:50:00,43.7,42.9,30.47,North,-999,0.0,0.0,97,0.00,,,0.00,pywws,2013-06-03 03:50:00,
2013-06-03 05:00:00,43.5,42.7,30.47,North,-999,0.0,0.0,97,0.00,,,0.00,pywws,2013-06-03 04:00:00,
2013-06-03 05:05:00,43.7,42.9,30.47,North,-999,0.0,0.0,97,0.00,,,0.00,pywws,2013-06-03 04:05:00,
2013-06-03 05:10:00,43.9,43.4,30.48,North,-999,0.0,0.0,98,0.00,,,0.00,pywws,2013-06-03 04:10:00,
2013-06-03 05:15:00,44.1,43.5,30.48,North,-999,0.0,0.0,98,0.00,,,0.00,pywws,2013-06-03 04:15:00,
2013-06-03 05:20:00,44.2,43.7,30.48,North,-999,0.0,0.0,98,0.00,,,0.00,pywws,2013-06-03 04:20:00,
2013-06-03 05:25:00,44.2,43.7,30.48,North,-999,0.0,0.0,98,0.00,,,0.00,pywws,2013-06-03 04:25:00,
2013-06-03 05:30:00,44.4,43.9,30.48,North,-999,0.0,0.0,98,0.00,,,0.00,pywws,2013-06-03 04:30:00,
2013-06-03 05:35:00,44.8,44.5,30.49,North,-999,0.0,0.0,99,0.00,,,0.00,pywws,2013-06-03 04:35:00,
2013-06-03 05:40:00,45.5,45.2,30.48,North,-999,0.0,0.0,99,0.00,,,0.00,pywws,2013-06-03 04:40:00,
2013-06-03 05:45:00,47.1,46.9,30.49,North,-999,0.0,0.0,99,0.00,,,0.00,pywws,2013-06-03 04:45:00,
2013-06-03 05:50:00,50.0,49.7,30.48,North,-999,0.0,0.7,99,0.00,,,0.00,pywws,2013-06-03 04:50:00,
2013-06-03 06:00:00,52.7,52.4,30.49,North,-999,0.0,0.7,99,0.00,,,0.00,pywws,2013-06-03 05:00:00,
2013-06-03 06:05:00,56.8,54.5,30.49,North,-999,0.0,1.6,92,0.00,,,0.00,pywws,2013-06-03 05:05:00,
2013-06-03 06:10:00,57.6,52.1,30.49,North,-999,0.0,1.6,82,0.00,,,0.00,pywws,2013-06-03 05:10:00,
2013-06-03 06:15:00,56.3,49.9,30.49,North,-999,0.0,0.0,79,0.00,,,0.00,pywws,2013-06-03 05:15:00,
2013-06-03 06:20:00,55.0,49.0,30.50,North,-999,0.0,0.0,80,0.00,,,0.00,pywws,2013-06-03 05:20:00,
2013-06-03 06:25:00,54.1,48.4,30.49,North,-999,0.0,0.0,81,0.00,,,0.00,pywws,2013-06-03 05:25:00,
2013-06-03 06:30:00,53.6,48.2,30.49,North,-999,0.0,0.0,82,0.00,,,0.00,pywws,2013-06-03 05:30:00,
2013-06-03 06:35:00,53.4,48.4,30.50,North,-999,0.0,0.0,83,0.00,,,0.00,pywws,2013-06-03 05:35:00,
2013-06-03 06:40:00,53.4,48.7,30.49,North,-999,0.0,0.0,84,0.00,,,0.00,pywws,2013-06-03 05:40:00,
2013-06-03 06:45:00,53.2,48.8,30.50,North,-999,0.0,0.0,85,0.00,,,0.00,pywws,2013-06-03 05:45:00,
2013-06-03 06:50:00,53.2,49.2,30.50,North,-999,0.0,0.0,86,0.00,,,0.00,pywws,2013-06-03 05:50:00,
2013-06-03 07:00:00,53.4,49.3,30.50,North,-999,0.0,0.0,86,0.00,,,0.00,pywws,2013-06-03 06:00:00,
2013-06-03 07:05:00,53.4,49.6,30.50,North,-999,0.0,0.7,87,0.00,,,0.00,pywws,2013-06-03 06:05:00,
2013-06-03 07:10:00,53.4,49.6,30.51,North,-999,0.0,0.0,87,0.00,,,0.00,pywws,2013-06-03 06:10:00,
2013-06-03 07:15:00,53.6,49.8,30.51,North,-999,0.0,0.0,87,0.00,,,0.00,pywws,2013-06-03 06:15:00,
2013-06-03 07:20:00,53.8,50.3,30.50,North,-999,0.0,0.7,88,0.00,,,0.00,pywws,2013-06-03 06:20:00,
2013-06-03 07:25:00,54.1,50.7,30.51,North,-999,0.0,0.0,88,0.00,,,0.00,pywws,2013-06-03 06:25:00,
2013-06-03 07:30:00,54.3,50.8,30.51,North,-999,0.0,0.0,88,0.00,,,0.00,pywws,2013-06-03 06:30:00,
2013-06-03 07:35:00,54.7,51.2,30.51,North,-999,0.0,0.0,88,0.00,,,0.00,pywws,2013-06-03 06:35:00,
2013-06-03 07:40:00,55.0,51.5,30.51,North,-999,0.0,0.0,88,0.00,,,0.00,pywws,2013-06-03 06:40:00,
2013-06-03 07:45:00,55.6,51.8,30.51,North,-999,0.0,0.0,87,0.00,,,0.00,pywws,2013-06-03 06:45:00,
2013-06-03 07:50:00,56.1,52.3,30.51,North,-999,0.0,0.0,87,0.00,,,0.00,pywws,2013-06-03 06:50:00,
2013-06-03 08:00:00,56.3,52.2,30.51,North,-999,0.0,0.0,86,0.00,,,0.00,pywws,2013-06-03 07:00:00,
2013-06-03 08:05:00,57.6,53.4,30.51,North,-999,0.0,0.0,86,0.00,,,0.00,pywws,2013-06-03 07:05:00,
2013-06-03 08:10:00,58.1,53.6,30.51,North,-999,0.0,0.0,85,0.00,,,0.00,pywws,2013-06-03 07:10:00,
2013-06-03 08:15:00,59.0,53.8,30.51,North,-999,0.0,0.7,83,0.00,,,0.00,pywws,2013-06-03 07:15:00,
2013-06-03 08:20:00,59.7,54.5,30.51,North,-999,0.0,1.6,83,0.00,,,0.00,pywws,2013-06-03 07:20:00,
2013-06-03 08:25:00,61.3,55.5,30.51,NE,45,0.7,1.6,81,0.00,,,0.00,pywws,2013-06-03 07:25:00,
2013-06-03 08:30:00,62.2,56.0,30.50,North,-999,0.0,0.7,80,0.00,,,0.00,pywws,2013-06-03 07:30:00,
2013-06-03 08:35:00,63.3,56.0,30.50,NE,45,0.7,1.6,77,0.00,,,0.00,pywws,2013-06-03 07:35:00,
2013-06-03 08:40:00,63.9,56.1,30.50,North,-999,0.0,1.6,76,0.00,,,0.00,pywws,2013-06-03 07:40:00,
2013-06-03 08:45:00,64.9,57.2,30.50,NE,45,0.7,1.6,76,0.00,,,0.00,pywws,2013-06-03 07:45:00,
2013-06-03 08:50:00,65.8,57.7,30.50,North,-999,0.0,0.7,75,0.00,,,0.00,pywws,2013-06-03 07:50:00,
2013-06-03 09:00:00,66.4,57.5,30.50,North,-999,0.0,0.0,73,0.00,,,0.00,pywws,2013-06-03 08:00:00,
2013-06-03 09:05:00,65.1,55.9,30.50,North,-999,0.0,0.7,72,0.00,,,0.00,pywws,2013-06-03 08:05:00,
2013-06-03 09:10:00,64.9,56.1,30.50,North,-999,0.0,0.7,73,0.00,,,0.00,pywws,2013-06-03 08:10:00,
2013-06-03 09:15:00,65.1,56.6,30.50,East,90,0.7,2.2,74,0.00,,,0.00,pywws,2013-06-03 08:15:00,
2013-06-03 09:20:00,65.3,56.4,30.50,North,-999,0.0,0.7,73,0.00,,,0.00,pywws,2013-06-03 08:20:00,
2013-06-03 09:25:00,65.8,56.9,30.50,East,90,0.7,1.6,73,0.00,,,0.00,pywws,2013-06-03 08:25:00,
2013-06-03 09:30:00,65.7,56.8,30.50,North,-999,0.0,1.6,73,0.00,,,0.00,pywws,2013-06-03 08:30:00,
2013-06-03 09:35:00,65.3,56.4,30.50,North,-999,0.0,0.7,73,0.00,,,0.00,pywws,2013-06-03 08:35:00,
2013-06-03 09:40:00,65.3,56.8,30.50,East,90,0.7,1.6,74,0.00,,,0.00,pywws,2013-06-03 08:40:00,
2013-06-03 09:45:00,64.8,56.3,30.50,West,270,0.7,1.6,74,0.00,,,0.00,pywws,2013-06-03 08:45:00,
2013-06-03 09:50:00,64.6,56.5,30.50,North,-999,0.0,1.6,75,0.00,,,0.00,pywws,2013-06-03 08:50:00,
2013-06-03 10:00:00,65.1,57.4,30.50,North,-999,0.0,0.7,76,0.00,,,0.00,pywws,2013-06-03 09:00:00,
2013-06-03 10:05:00,65.3,56.8,30.50,NW,315,0.7,2.2,74,0.00,,,0.00,pywws,2013-06-03 09:05:00,
2013-06-03 10:10:00,65.5,57.7,30.50,East,90,0.7,1.6,76,0.00,,,0.00,pywws,2013-06-03 09:10:00,
2013-06-03 10:15:00,65.5,57.3,30.50,North,-999,0.0,0.7,75,0.00,,,0.00,pywws,2013-06-03 09:15:00,
2013-06-03 10:20:00,65.8,57.7,30.50,East,90,0.7,1.6,75,0.00,,,0.00,pywws,2013-06-03 09:20:00,
2013-06-03 10:25:00,65.3,57.2,30.50,North,-999,0.0,1.6,75,0.00,,,0.00,pywws,2013-06-03 09:25:00,
2013-06-03 10:30:00,65.7,57.9,30.50,North,-999,0.0,1.6,76,0.00,,,0.00,pywws,2013-06-03 09:30:00,
2013-06-03 10:35:00,66.4,58.6,30.50,East,90,0.7,1.6,76,0.00,,,0.00,pywws,2013-06-03 09:35:00,
2013-06-03 10:40:00,66.0,57.5,30.50,East,90,0.7,2.2,74,0.00,,,0.00,pywws,2013-06-03 09:40:00,
2013-06-03 10:45:00,66.4,58.2,30.50,North,-999,0.0,1.6,75,0.00,,,0.00,pywws,2013-06-03 09:45:00,
2013-06-03 10:50:00,66.6,58.0,30.50,East,90,0.7,1.6,74,0.00,,,0.00,pywws,2013-06-03 09:50:00,
2013-06-03 11:00:00,66.2,56.9,30.50,SE,135,0.7,1.6,72,0.00,,,0.00,pywws,2013-06-03 10:00:00,
2013-06-03 11:05:00,67.1,58.5,30.50,North,-999,0.0,1.6,74,0.00,,,0.00,pywws,2013-06-03 10:05:00,
2013-06-03 11:10:00,67.8,58.8,30.50,East,90,0.7,2.2,73,0.00,,,0.00,pywws,2013-06-03 10:10:00,
2013-06-03 11:15:00,67.3,58.7,30.50,East,90,0.7,1.6,74,0.00,,,0.00,pywws,2013-06-03 10:15:00,
2013-06-03 11:20:00,67.8,59.2,30.50,North,-999,0.0,0.7,74,0.00,,,0.00,pywws,2013-06-03 10:20:00,
2013-06-03 11:25:00,69.1,59.7,30.50,North,-999,0.0,1.6,72,0.00,,,0.00,pywws,2013-06-03 10:25:00,
2013-06-03 11:30:00,69.8,60.4,30.50,North,-999,0.0,1.6,72,0.00,,,0.00,pywws,2013-06-03 10:30:00,
2013-06-03 11:35:00,70.5,59.8,30.50,East,90,0.7,1.6,69,0.00,,,0.00,pywws,2013-06-03 10:35:00,
2013-06-03 11:40:00,70.7,59.6,30.50,North,-999,0.0,1.6,68,0.00,,,0.00,pywws,2013-06-03 10:40:00,
2013-06-03 11:45:00,71.2,60.1,30.50,North,-999,0.0,0.7,68,0.00,,,0.00,pywws,2013-06-03 10:45:00,
2013-06-03 11:50:00,70.9,58.9,30.50,North,-999,0.0,1.6,66,0.00,,,0.00,pywws,2013-06-03 10:50:00,
2013-06-03 12:00:00,70.9,59.4,30.50,North,-999,0.0,0.7,67,0.00,,,0.00,pywws,2013-06-03 11:00:00,
2013-06-03 12:05:00,69.3,57.8,30.50,North,-999,0.0,2.2,67,0.00,,,0.00,pywws,2013-06-03 11:05:00,
2013-06-03 12:10:00,68.9,58.3,30.50,NE,45,0.7,1.6,69,0.00,,,0.00,pywws,2013-06-03 11:10:00,
2013-06-03 12:15:00,69.3,58.6,30.50,North,-999,0.0,0.7,69,0.00,,,0.00,pywws,2013-06-03 11:15:00,
2013-06-03 12:20:00,70.2,59.5,30.50,North,-999,0.0,0.7,69,0.00,,,0.00,pywws,2013-06-03 11:20:00,
2013-06-03 12:25:00,70.7,60.0,30.50,North,-999,0.0,1.6,69,0.00,,,0.00,pywws,2013-06-03 11:25:00,
2013-06-03 12:30:00,70.7,59.2,30.50,North,-999,0.0,1.6,67,0.00,,,0.00,pywws,2013-06-03 11:30:00,
2013-06-03 12:35:00,72.5,60.5,30.50,North,-999,0.0,0.7,66,0.00,,,0.00,pywws,2013-06-03 11:35:00,
2013-06-03 12:40:00,73.4,58.7,30.50,West,270,1.6,3.8,60,0.00,,,0.00,pywws,2013-06-03 11:40:00,
2013-06-03 12:45:00,72.5,59.2,30.50,North,-999,0.0,0.7,63,0.00,,,0.00,pywws,2013-06-03 11:45:00,
2013-06-03 12:50:00,71.8,58.0,30.50,East,90,0.7,1.6,62,0.00,,,0.00,pywws,2013-06-03 11:50:00,
2013-06-03 13:00:00,71.4,59.5,30.50,NE,45,0.7,1.6,66,0.00,,,0.00,pywws,2013-06-03 12:00:00,
2013-06-03 13:05:00,73.4,60.5,30.49,North,-999,0.0,0.7,64,0.00,,,0.00,pywws,2013-06-03 12:05:00,
2013-06-03 13:10:00,73.9,59.6,30.50,North,-999,0.0,1.6,61,0.00,,,0.00,pywws,2013-06-03 12:10:00,
2013-06-03 13:15:00,73.8,60.4,30.50,North,-999,0.0,0.0,63,0.00,,,0.00,pywws,2013-06-03 12:15:00,
2013-06-03 13:20:00,73.8,59.5,30.50,SE,135,0.7,1.6,61,0.00,,,0.00,pywws,2013-06-03 12:20:00,
2013-06-03 13:25:00,73.4,60.5,30.50,North,-999,0.0,0.7,64,0.00,,,0.00,pywws,2013-06-03 12:25:00,
2013-06-03 13:30:00,73.2,60.3,30.49,North,-999,0.0,0.7,64,0.00,,,0.00,pywws,2013-06-03 12:30:00,
2013-06-03 13:35:00,73.4,60.9,30.49,North,-999,0.0,1.6,65,0.00,,,0.00,pywws,2013-06-03 12:35:00,
2013-06-03 13:40:00,73.6,60.2,30.49,North,-999,0.0,1.6,63,0.00,,,0.00,pywws,2013-06-03 12:40:00,
2013-06-03 13:45:00,74.5,61.5,30.49,North,-999,0.0,1.6,64,0.00,,,0.00,pywws,2013-06-03 12:45:00,
2013-06-03 13:50:00,74.8,60.0,30.49,North,-999,0.0,2.2,60,0.00,,,0.00,pywws,2013-06-03 12:50:00,
2013-06-03 14:00:00,75.6,60.7,30.49,North,-999,0.0,0.7,60,0.00,,,0.00,pywws,2013-06-03 13:00:00,
2013-06-03 14:05:00,77.4,60.9,30.48,North,-999,0.0,0.0,57,0.00,,,0.00,pywws,2013-06-03 13:05:00,
2013-06-03 14:10:00,78.6,58.4,30.48,ESE,112,0.7,1.6,50,0.00,,,0.00,pywws,2013-06-03 13:10:00,
2013-06-03 14:15:00,77.0,58.0,30.48,SE,135,0.7,2.2,52,0.00,,,0.00,pywws,2013-06-03 13:15:00,
2013-06-03 14:20:00,74.8,57.1,30.49,SE,135,0.7,1.6,54,0.00,,,0.00,pywws,2013-06-03 13:20:00,
2013-06-03 14:25:00,74.1,56.9,30.48,West,270,0.7,2.2,55,0.00,,,0.00,pywws,2013-06-03 13:25:00,
2013-06-03 14:30:00,75.0,58.2,30.48,South,180,0.7,3.1,56,0.00,,,0.00,pywws,2013-06-03 13:30:00,
2013-06-03 14:35:00,75.0,58.2,30.48,East,90,0.7,2.2,56,0.00,,,0.00,pywws,2013-06-03 13:35:00,
2013-06-03 14:40:00,75.0,58.7,30.48,North,-999,0.0,2.2,57,0.00,,,0.00,pywws,2013-06-03 13:40:00,
2013-06-03 14:45:00,76.3,57.9,30.48,NW,315,1.6,4.5,53,0.00,,,0.00,pywws,2013-06-03 13:45:00,
2013-06-03 14:50:00,73.6,56.4,30.48,East,90,0.7,3.1,55,0.00,,,0.00,pywws,2013-06-03 13:50:00,
2013-06-03 15:00:00,72.0,57.3,30.48,North,-999,0.0,0.7,60,0.00,,,0.00,pywws,2013-06-03 14:00:00,
2013-06-03 15:05:00,72.3,58.6,30.47,North,-999,0.0,2.2,62,0.00,,,0.00,pywws,2013-06-03 14:05:00,
2013-06-03 15:10:00,73.2,58.5,30.47,NE,45,0.7,3.1,60,0.00,,,0.00,pywws,2013-06-03 14:10:00,
2013-06-03 15:15:00,72.5,56.9,30.48,SW,225,2.2,4.5,58,0.00,,,0.00,pywws,2013-06-03 14:15:00,
2013-06-03 15:20:00,70.3,55.8,30.48,NW,315,1.6,3.1,60,0.00,,,0.00,pywws,2013-06-03 14:20:00,
2013-06-03 15:25:00,69.1,56.4,30.47,South,180,0.7,3.8,64,0.00,,,0.00,pywws,2013-06-03 14:25:00,
2013-06-03 15:30:00,68.5,55.4,30.48,SW,225,1.6,3.8,63,0.00,,,0.00,pywws,2013-06-03 14:30:00,
2013-06-03 15:35:00,68.9,55.3,30.48,SSW,202,1.6,4.5,62,0.00,,,0.00,pywws,2013-06-03 14:35:00,
2013-06-03 15:40:00,68.4,55.3,30.47,East,90,1.6,4.5,63,0.00,,,0.00,pywws,2013-06-03 14:40:00,
2013-06-03 15:45:00,67.8,54.8,30.47,ENE,68,0.7,3.1,63,0.00,,,0.00,pywws,2013-06-03 14:45:00,
2013-06-03 15:50:00,67.1,54.9,30.48,NE,45,0.7,2.2,65,0.00,,,0.00,pywws,2013-06-03 14:50:00,
2013-06-03 16:00:00,67.3,55.5,30.48,North,-999,0.0,0.7,66,0.00,,,0.00,pywws,2013-06-03 15:00:00,
2013-06-03 16:05:00,68.2,54.7,30.48,East,90,0.7,2.2,62,0.00,,,0.00,pywws,2013-06-03 15:05:00,
2013-06-03 16:10:00,68.2,54.7,30.47,North,0,0.7,2.2,62,0.00,,,0.00,pywws,2013-06-03 15:10:00,
2013-06-03 16:15:00,68.5,54.5,30.48,North,-999,0.0,3.1,61,0.00,,,0.00,pywws,2013-06-03 15:15:00,
2013-06-03 16:20:00,68.5,54.5,30.48,SW,225,0.7,3.1,61,0.00,,,0.00,pywws,2013-06-03 15:20:00,
2013-06-03 16:25:00,69.1,55.5,30.48,North,-999,0.0,1.6,62,0.00,,,0.00,pywws,2013-06-03 15:25:00,
2013-06-03 16:30:00,69.6,55.6,30.47,East,90,0.7,2.2,61,0.00,,,0.00,pywws,2013-06-03 15:30:00,
2013-06-03 16:35:00,69.3,55.2,30.47,SE,135,0.7,2.2,61,0.00,,,0.00,pywws,2013-06-03 15:35:00,
2013-06-03 16:40:00,68.7,54.7,30.47,SE,135,0.7,2.2,61,0.00,,,0.00,pywws,2013-06-03 15:40:00,
2013-06-03 16:45:00,68.4,54.8,30.47,South,180,1.6,4.5,62,0.00,,,0.00,pywws,2013-06-03 15:45:00,
2013-06-03 16:50:00,68.4,55.3,30.47,South,180,1.6,3.8,63,0.00,,,0.00,pywws,2013-06-03 15:50:00,
2013-06-03 17:00:00,68.4,54.8,30.47,SW,225,0.7,3.1,62,0.00,,,0.00,pywws,2013-06-03 16:00:00,
2013-06-03 17:05:00,68.2,54.7,30.47,ENE,68,0.7,1.6,62,0.00,,,0.00,pywws,2013-06-03 16:05:00,
2013-06-03 17:10:00,68.4,54.8,30.47,South,180,0.7,3.8,62,0.00,,,0.00,pywws,2013-06-03 16:10:00,
2013-06-03 17:15:00,68.5,54.5,30.47,North,-999,0.0,1.6,61,0.00,,,0.00,pywws,2013-06-03 16:15:00,
2013-06-03 17:20:00,68.4,53.9,30.47,SW,225,0.7,1.6,60,0.00,,,0.00,pywws,2013-06-03 16:20:00,
2013-06-03 17:25:00,68.4,53.9,30.47,East,90,0.7,2.2,60,0.00,,,0.00,pywws,2013-06-03 16:25:00,
2013-06-03 17:30:00,67.8,53.4,30.47,East,90,2.2,3.8,60,0.00,,,0.00,pywws,2013-06-03 16:30:00,
2013-06-03 17:35:00,67.6,54.1,30.47,ENE,68,1.6,3.1,62,0.00,,,0.00,pywws,2013-06-03 16:35:00,
2013-06-03 17:40:00,67.6,53.7,30.47,North,-999,0.0,1.6,61,0.00,,,0.00,pywws,2013-06-03 16:40:00,
2013-06-03 17:45:00,67.6,53.7,30.47,East,90,1.6,3.1,61,0.00,,,0.00,pywws,2013-06-03 16:45:00,
2013-06-03 17:50:00,67.6,53.7,30.47,East,90,0.7,3.1,61,0.00,,,0.00,pywws,2013-06-03 16:50:00,
2013-06-03 18:00:00,68.2,53.3,30.47,East,90,1.6,6.0,59,0.00,,,0.00,pywws,2013-06-03 17:00:00,
2013-06-03 18:05:00,68.2,52.8,30.47,SE,135,1.6,3.8,58,0.00,,,0.00,pywws,2013-06-03 17:05:00,
2013-06-03 18:10:00,68.4,52.5,30.47,NE,45,0.7,2.2,57,0.00,,,0.00,pywws,2013-06-03 17:10:00,
2013-06-03 18:15:00,68.7,53.3,30.46,North,-999,0.0,1.6,58,0.00,,,0.00,pywws,2013-06-03 17:15:00,
2013-06-03 18:20:00,68.9,53.0,30.46,South,180,0.7,3.1,57,0.00,,,0.00,pywws,2013-06-03 17:20:00,
2013-06-03 18:25:00,69.1,53.2,30.47,East,90,0.7,2.2,57,0.00,,,0.00,pywws,2013-06-03 17:25:00,
2013-06-03 18:30:00,69.1,53.2,30.47,East,90,0.7,3.8,57,0.00,,,0.00,pywws,2013-06-03 17:30:00,
2013-06-03 18:35:00,69.1,53.7,30.47,SE,135,0.7,2.2,58,0.00,,,0.00,pywws,2013-06-03 17:35:00,
2013-06-03 18:40:00,69.1,54.1,30.47,North,-999,0.0,1.6,59,0.00,,,0.00,pywws,2013-06-03 17:40:00,
2013-06-03 18:45:00,68.9,53.5,30.47,North,-999,0.0,2.2,58,0.00,,,0.00,pywws,2013-06-03 17:45:00,
2013-06-03 18:50:00,69.1,53.7,30.47,SW,225,0.7,3.1,58,0.00,,,0.00,pywws,2013-06-03 17:50:00,
2013-06-03 19:00:00,69.3,53.8,30.47,North,-999,0.0,2.2,58,0.00,,,0.00,pywws,2013-06-03 18:00:00,
2013-06-03 19:05:00,69.1,54.1,30.48,North,-999,0.0,1.6,59,0.00,,,0.00,pywws,2013-06-03 18:05:00,
2013-06-03 19:10:00,68.9,54.0,30.47,East,90,0.7,2.2,59,0.00,,,0.00,pywws,2013-06-03 18:10:00,
2013-06-03 19:15:00,68.5,54.1,30.48,North,-999,0.0,0.7,60,0.00,,,0.00,pywws,2013-06-03 18:15:00,
2013-06-03 19:20:00,68.4,54.4,30.47,North,-999,0.0,2.2,61,0.00,,,0.00,pywws,2013-06-03 18:20:00,
2013-06-03 19:25:00,68.2,54.2,30.48,East,90,0.7,1.6,61,0.00,,,0.00,pywws,2013-06-03 18:25:00,
2013-06-03 19:30:00,67.5,54.4,30.48,East,90,0.7,2.2,63,0.00,,,0.00,pywws,2013-06-03 18:30:00,
2013-06-03 19:35:00,66.2,54.1,30.48,East,90,2.2,4.5,65,0.00,,,0.00,pywws,2013-06-03 18:35:00,
2013-06-03 19:40:00,65.3,54.1,30.48,North,-999,0.0,1.6,67,0.00,,,0.00,pywws,2013-06-03 18:40:00,
2013-06-03 19:45:00,64.4,54.0,30.48,SE,135,0.7,3.1,69,0.00,,,0.00,pywws,2013-06-03 18:45:00,
2013-06-03 19:50:00,63.9,54.3,30.48,North,-999,0.0,3.1,71,0.00,,,0.00,pywws,2013-06-03 18:50:00,
2013-06-03 20:00:00,63.5,54.3,30.48,North,-999,0.0,0.7,72,0.00,,,0.00,pywws,2013-06-03 19:00:00,
2013-06-03 20:05:00,63.1,54.7,30.48,South,180,0.7,2.2,74,0.00,,,0.00,pywws,2013-06-03 19:05:00,
2013-06-03 20:10:00,63.1,55.1,30.48,East,90,0.7,1.6,75,0.00,,,0.00,pywws,2013-06-03 19:10:00,
2013-06-03 20:15:00,63.0,54.9,30.48,North,-999,0.0,1.6,75,0.00,,,0.00,pywws,2013-06-03 19:15:00,
2013-06-03 20:20:00,63.0,55.3,30.48,SE,135,0.7,1.6,76,0.00,,,0.00,pywws,2013-06-03 19:20:00,
2013-06-03 20:25:00,63.0,55.3,30.48,North,-999,0.0,1.6,76,0.00,,,0.00,pywws,2013-06-03 19:25:00,
2013-06-03 20:30:00,62.8,55.1,30.48,East,90,0.7,2.2,76,0.00,,,0.00,pywws,2013-06-03 19:30:00,
2013-06-03 20:35:00,62.8,55.5,30.47,North,-999,0.0,0.7,77,0.00,,,0.00,pywws,2013-06-03 19:35:00,
2013-06-03 20:40:00,62.6,54.9,30.47,North,-999,0.0,0.0,76,0.00,,,0.00,pywws,2013-06-03 19:40:00,
2013-06-03 20:45:00,62.6,55.3,30.48,North,-999,0.0,0.0,77,0.00,,,0.00,pywws,2013-06-03 19:45:00,
2013-06-03 20:50:00,62.4,55.5,30.48,North,-999,0.0,0.0,78,0.00,,,0.00,pywws,2013-06-03 19:50:00,
2013-06-03 21:00:00,62.2,55.3,30.48,North,-999,0.0,0.0,78,0.00,,,0.00,pywws,2013-06-03 20:00:00,
2013-06-03 21:05:00,62.1,55.5,30.49,North,-999,0.0,0.0,79,0.00,,,0.00,pywws,2013-06-03 20:05:00,
2013-06-03 21:10:00,62.1,55.1,30.49,North,-999,0.0,0.7,78,0.00,,,0.00,pywws,2013-06-03 20:10:00,
2013-06-03 21:15:00,62.1,55.1,30.49,North,-999,0.0,0.0,78,0.00,,,0.00,pywws,2013-06-03 20:15:00,
2013-06-03 21:20:00,61.9,54.9,30.49,North,-999,0.0,0.0,78,0.00,,,0.00,pywws,2013-06-03 20:20:00,
2013-06-03 21:25:00,61.7,55.1,30.49,North,-999,0.0,0.0,79,0.00,,,0.00,pywws,2013-06-03 20:25:00,
2013-06-03 21:30:00,61.2,54.6,30.50,North,-999,0.0,0.0,79,0.00,,,0.00,pywws,2013-06-03 20:30:00,
2013-06-03 21:35:00,60.6,54.4,30.50,North,-999,0.0,0.0,80,0.00,,,0.00,pywws,2013-06-03 20:35:00,
2013-06-03 21:40:00,60.1,54.2,30.50,North,-999,0.0,0.0,81,0.00,,,0.00,pywws,2013-06-03 20:40:00,
2013-06-03 21:45:00,59.7,54.2,30.50,North,-999,0.0,0.0,82,0.00,,,0.00,pywws,2013-06-03 20:45:00,
2013-06-03 21:50:00,59.4,54.2,30.50,North,-999,0.0,0.0,83,0.00,,,0.00,pywws,2013-06-03 20:50:00,
2013-06-03 22:00:00,59.4,55.2,30.50,North,-999,0.0,1.6,86,0.00,,,0.00,pywws,2013-06-03 21:00:00,
2013-06-03 22:05:00,59.2,54.7,30.50,North,-999,0.0,0.0,85,0.00,,,0.00,pywws,2013-06-03 21:05:00,
2013-06-03 22:10:00,58.8,54.3,30.50,North,-999,0.0,0.7,85,0.00,,,0.00,pywws,2013-06-03 21:10:00,
2013-06-03 22:15:00,58.5,54.3,30.50,North,-999,0.0,0.0,86,0.00,,,0.00,pywws,2013-06-03 21:15:00,
2013-06-03 22:20:00,57.9,54.1,30.50,North,-999,0.0,0.7,87,0.00,,,0.00,pywws,2013-06-03 21:20:00,
2013-06-03 22:25:00,57.6,54.6,30.50,SE,135,2.2,3.8,90,0.00,,,0.00,pywws,2013-06-03 21:25:00,
2013-06-03 22:30:00,57.2,54.6,30.51,SE,135,0.7,2.2,91,0.00,,,0.00,pywws,2013-06-03 21:30:00,
2013-06-03 22:35:00,56.7,54.4,30.51,SE,135,2.2,5.4,92,0.00,,,0.00,pywws,2013-06-03 21:35:00,
2013-06-03 22:40:00,56.1,54.1,30.51,SE,135,1.6,4.5,93,0.00,,,0.00,pywws,2013-06-03 21:40:00,
2013-06-03 22:45:00,55.6,54.2,30.51,SE,135,0.7,2.2,95,0.00,,,0.00,pywws,2013-06-03 21:45:00,
2013-06-03 22:50:00,55.4,54.6,30.51,SE,135,2.2,3.8,97,0.00,,,0.00,pywws,2013-06-03 21:50:00,
2013-06-03 23:00:00,55.0,53.9,30.51,North,-999,0.0,0.0,96,0.00,,,0.00,pywws,2013-06-03 22:00:00,
2013-06-03 23:05:00,54.5,53.4,30.52,North,-999,0.0,1.6,96,0.00,,,0.00,pywws,2013-06-03 22:05:00,
2013-06-03 23:10:00,54.5,53.4,30.52,North,-999,0.0,0.7,96,0.00,,,0.00,pywws,2013-06-03 22:10:00,
2013-06-03 23:15:00,54.7,54.1,30.52,North,-999,0.0,1.6,98,0.00,,,0.00,pywws,2013-06-03 22:15:00,
2013-06-03 23:20:00,54.7,54.1,30.52,North,-999,0.0,0.0,98,0.00,,,0.00,pywws,2013-06-03 22:20:00,
2013-06-03 23:25:00,54.9,54.6,30.52,SE,135,1.6,4.5,99,0.00,,,0.00,pywws,2013-06-03 22:25:00,
2013-06-03 23:30:00,54.9,54.6,30.52,SE,135,0.7,2.2,99,0.00,,,0.00,pywws,2013-06-03 22:30:00,
2013-06-03 23:35:00,54.9,54.6,30.52,SE,135,0.7,2.2,99,0.00,,,0.00,pywws,2013-06-03 22:35:00,
2013-06-03 23:40:00,54.9,54.6,30.52,NE,45,0.7,2.2,99,0.00,,,0.00,pywws,2013-06-03 22:40:00,
2013-06-03 23:45:00,54.9,54.6,30.52,East,90,1.6,3.1,99,0.00,,,0.00,pywws,2013-06-03 22:45:00,
2013-06-03 23:50:00,54.7,54.4,30.52,South,180,0.7,2.2,99,0.00,,,0.00,pywws,2013-06-03 22:50:00,